Miscellaneous Local Product
Issued by NWS North Platte, NE

Home | Current Version | Previous Version | Graphics & Text | Print | Product List | Glossary On
Versions: 1 2 3 4 5 6 7 8 9 10 11 12 13 14 15 16 17 18 19 20 21 22 23 24 25 26 27 28 29 30 31 32 33 34 35 36 37 38 39 40 41 42 43 44 45 46 47 48 49 50
535
AXUS43 KLBF 251110
MISLBF


WESTERN AND NORTH CENTRAL NEBRASKA HOURLY WEATHER ROUNDUP
NATIONAL WEATHER SERVICE NORTH PLATTE NE
600 AM CDT TUE JUL 25 2017

NOTE: "FAIR" INDICATES FEW OR NO CLOUDS BELOW 12,000 FEET WITH NO
SIGNIFICANT WEATHER AND/OR OBSTRUCTIONS TO VISIBILITY.

NOTE: STATIONS NOT REPORTING VARIABLES SUCH AS SKY/WEATHER OR
PRESSURE ARE PROVIDED BY RAWS AND APRS NETWORKS AND ARE NOT UNDER
NATIONAL WEATHER SERVICE QUALITY CONTROL.

...OBSERVATIONS IN AND NEAR THE EASTERN PANHANDLE OF NEBRASKA...

CITY           SKY/WX    TMP DP  RH WIND       PRES   REMARKS
PINE RIDGE     CLEAR     68  59  73 W6        29.88S
GORDON         FAIR      67  59  75 CALM      29.91S
CHADRON        CLEAR     72  55  55 S7        29.86S
ALLIANCE       PTCLDY    68  58  70 SE8       29.94R
SIDNEY         CLOUDY    74  60  61 SW14      30.00R
CRESCENT LAKE    N/A     72  62  71 S3          N/A
$$

...OBSERVATIONS IN NORTHERN NEBRASKA AND FAR SOUTHERN SOUTH DAKOTA...

CITY           SKY/WX    TMP DP  RH WIND       PRES   REMARKS
WINNER         FAIR      77  63  61 S20G25    29.82R
VALENTINE      CLEAR     69  57  65 CALM      29.88S
THEDFORD       CLEAR     77  58  51 S10       29.95R
AINSWORTH      CLEAR     74  56  54 S10       29.90S
O`NEILL        CLEAR     73  65  76 S13       29.91S
ORD            CLEAR     74  61  63 S6        29.95R
BROKEN BOW     CLEAR     72  58  61 S7        29.97R
VALENTINE NWR    N/A     69  57  65 S8          N/A
HALSEY           N/A     77  54  44 S9G16       N/A
BUTTE            N/A     75  62  64 S12G24      N/A
CHAMBERS         N/A     73  64  73 S7          N/A
EWING            N/A     75  66  74 S9G17       N/A
$$

...OBSERVATIONS IN SOUTHWEST NEBRASKA AND FAR NORTHEAST COLORADO...

CITY           SKY/WX    TMP DP  RH WIND       PRES   REMARKS
HOLYOKE        FAIR      70  63  78 S7        29.99R
IMPERIAL       PTCLDY    72  62  71 S7        29.98R
OGALLALA       PTCLDY    73  62  67 SW5       29.96R
NORTH PLATTE   CLEAR     76  60  57 SE7       29.96R
MCCOOK         CLEAR     74  62  66 SW5       29.97R
LEXINGTON      PTCLDY    70  60  70 S8        29.98S
STAPLETON        N/A     70  57  62 CALM        N/A
GOTHENBURG       N/A     76  54  45 E5          N/A
CALLAWAY         N/A     71  59  66 S12         N/A
$$

...OBSERVATIONS IN CENTRAL LINCOLN COUNTY AREA...

CITY           SKY/WX    TMP DP  RH WIND       PRES   REMARKS
N.P. AIRPORT   CLEAR     76  60  57 SE7       29.96R
N.P. DOWNTOWN    N/A     76  62  61 CALM        N/A
N.P. HILLCREST   N/A     74  60  60 SE8         N/A
$$

...SOME OBSERVATIONS FROM AROUND THE REGION...

CITY           SKY/WX    TMP DP  RH WIND       PRES   REMARKS
DENVER         CLOUDY    71  50  47 SW10      30.05R
LIMON          PTCLDY    61  59  93 CALM      30.10S
ASPEN          CLOUDY    58  50  75 SW3       30.33S
LARAMIE        CLOUDY    57  43  59 SE5       30.21R
CASPER         CLOUDY    57  43  59 CALM      30.07R
CHEYENNE       CLOUDY    62  42  47 W7        30.11S
SCOTTSBLUFF    CLOUDY    75  56  51 N6        29.94S
GRAND ISLAND   CLEAR     72  68  87 S9        29.98S
OMAHA          PTCLDY    74  64  71 S18       29.99S
SIOUX FALLS    PTCLDY    70  67  90 S14       29.91F
PIERRE         CLEAR     64  61  90 N8        29.79R
RAPID CITY     CLEAR     69  60  73 N14       29.88R
BISMARCK       CLEAR     65  64  97 E5        29.87R
KANSAS CITY    PTCLDY    71  66  84 SE8       30.06R
HILL CITY      CLEAR     72  62  71 S9        30.00R
WICHITA        PTCLDY    72  69  90 S7        30.03R
DODGE CITY     CLEAR     71  67  87 S9        30.05S
OKLAHOMA CITY  CLEAR     73  71  93 S7        30.05R
DALLAS         PTCLDY    79  73  82 S10       30.02R
AMARILLO       PTCLDY    69  65  86 SE12      30.11R
$$




USA.gov is the U.S. government's official web portal to all federal, state and local government web resources and services.